A4066 KDYS-KDYS

Flight info

Callsign A4066
Flight time N/A
Altitude 16500
Route SDR LANCER MOA/D0100
Aircraft B1/H-V/N

Departure

Time 2026-04-15 15:37
Airport Dyess Air Force Base (KDYS)

Arrival

Time N/A
Airport Dyess Air Force Base (KDYS)
Time Latitude Longitude Altitude Speed Heading
2026-04-15 15:15 32.41476 -99.84717 1818 ft 0 kts 258°
2026-04-15 15:26 32.41473 -99.84730 1816 ft 4 kts 258°
2026-04-15 15:27 32.41468 -99.84762 1812 ft 0 kts 259°
2026-04-15 15:27 32.41468 -99.84764 1812 ft 0 kts 277°
2026-04-15 15:27 32.41484 -99.84783 1816 ft 7 kts 328°
2026-04-15 15:27 32.41542 -99.84802 1813 ft 10 kts 348°
2026-04-15 15:28 32.41614 -99.84818 1815 ft 12 kts 349°
2026-04-15 15:28 32.41675 -99.84843 1812 ft 4 kts 300°
2026-04-15 15:28 32.41678 -99.84879 1814 ft 5 kts 267°
2026-04-15 15:28 32.41671 -99.84937 1813 ft 9 kts 259°
2026-04-15 15:29 32.41673 -99.84957 1815 ft 2 kts 303°
2026-04-15 15:29 32.41696 -99.84978 1815 ft 7 kts 336°
2026-04-15 15:29 32.41763 -99.84998 1814 ft 14 kts 348°
2026-04-15 15:29 32.41861 -99.85019 1815 ft 17 kts 349°
2026-04-15 15:30 32.41976 -99.85048 1814 ft 19 kts 349°
2026-04-15 15:30 32.42085 -99.85072 1814 ft 15 kts 349°
2026-04-15 15:30 32.42189 -99.85095 1812 ft 15 kts 348°
2026-04-15 15:30 32.42308 -99.85123 1815 ft 19 kts 349°
2026-04-15 15:31 32.42445 -99.85154 1813 ft 19 kts 355°
2026-04-15 15:31 32.42564 -99.85184 1812 ft 19 kts 347°
2026-04-15 15:31 32.42717 -99.85219 1814 ft 24 kts 348°
2026-04-15 15:31 32.42869 -99.85255 1813 ft 23 kts 348°
2026-04-15 15:32 32.43024 -99.85289 1814 ft 21 kts 349°
2026-04-15 15:32 32.43184 -99.85328 1814 ft 17 kts 344°
2026-04-15 15:32 32.43315 -99.85374 1813 ft 23 kts 348°
2026-04-15 15:32 32.43421 -99.85396 1814 ft 22 kts 349°
2026-04-15 15:33 32.43566 -99.85432 1814 ft 19 kts 347°
2026-04-15 15:33 32.43715 -99.85466 1814 ft 23 kts 349°
2026-04-15 15:33 32.43893 -99.85521 1816 ft 18 kts 328°
2026-04-15 15:33 32.43931 -99.85592 1816 ft 14 kts 271°
2026-04-15 15:34 32.43920 -99.85673 1816 ft 10 kts 258°
2026-04-15 15:34 32.43911 -99.85728 1818 ft 7 kts 259°
2026-04-15 15:34 32.43905 -99.85765 1816 ft 0 kts 258°
2026-04-15 15:35 32.43903 -99.85775 1815 ft 4 kts 258°
2026-04-15 15:35 32.43888 -99.85842 1815 ft 8 kts 251°
2026-04-15 15:35 32.43853 -99.85873 1813 ft 7 kts 177°
2026-04-15 15:36 32.43844 -99.85871 1814 ft 0 kts 170°
2026-04-15 15:36 32.43818 -99.85866 1815 ft 22 kts 170°
2026-04-15 15:36 32.43450 -99.85779 1813 ft 87 kts 169°
2026-04-15 15:37 32.42648 -99.85591 1817 ft 146 kts 169°
2026-04-15 15:37 32.41471 -99.85330 1950 ft 193 kts 169°
2026-04-15 15:37 32.40071 -99.85013 2401 ft 219 kts 168°
2026-04-15 15:37 32.38504 -99.84630 2941 ft 238 kts 169°
2026-04-15 15:38 32.36836 -99.84223 3783 ft 249 kts 169°
2026-04-15 15:38 32.35109 -99.83794 4625 ft 256 kts 170°
2026-04-15 15:38 32.33347 -99.83339 5472 ft 263 kts 169°
2026-04-15 15:38 32.31513 -99.83020 6260 ft 269 kts 181°
2026-04-15 15:39 32.29641 -99.83302 7105 ft 274 kts 198°
2026-04-15 15:39 32.27917 -99.84265 8091 ft 277 kts 217°
2026-04-15 15:39 32.26597 -99.85927 9173 ft 281 kts 237°
2026-04-15 15:39 32.25861 -99.88041 10280 ft 286 kts 259°
2026-04-15 15:40 32.25857 -99.90412 11404 ft 294 kts 277°
2026-04-15 15:40 32.26527 -99.92722 12549 ft 305 kts 295°
2026-04-15 15:40 32.27943 -99.94678 13761 ft 318 kts 310°
2026-04-15 15:40 32.29625 -99.96418 14868 ft 323 kts 313°
2026-04-15 15:41 32.31383 -99.98121 15598 ft 345 kts 313°
2026-04-15 15:41 32.33346 -99.99985 16066 ft 378 kts 314°
2026-04-15 15:41 32.35501 -100.02025 16304 ft 415 kts 314°
2026-04-15 15:41 32.37853 -100.04267 16413 ft 452 kts 314°
2026-04-15 15:42 32.40384 -100.06699 16460 ft 485 kts 315°
2026-04-15 15:42 32.43072 -100.09301 16482 ft 512 kts 315°
2026-04-15 15:42 32.45910 -100.12071 16496 ft 548 kts 315°
2026-04-15 15:42 32.48884 -100.15008 16508 ft 571 kts 315°
2026-04-15 15:43 32.51885 -100.17968 16512 ft 551 kts 315°
2026-04-15 15:43 32.54846 -100.20876 16517 ft 554 kts 315°
2026-04-15 15:43 32.57767 -100.23820 16493 ft 541 kts 310°
2026-04-15 15:43 32.59906 -100.27275 16474 ft 502 kts 295°
2026-04-15 15:44 32.61596 -100.30752 16512 ft 471 kts 295°
2026-04-15 15:44 32.63244 -100.33987 16520 ft 444 kts 295°
2026-04-15 15:44 32.64832 -100.37025 16528 ft 440 kts 296°
2026-04-15 15:44 32.66443 -100.40099 16528 ft 436 kts 296°
2026-04-15 15:45 32.68058 -100.43175 16524 ft 436 kts 296°
2026-04-15 15:45 32.69677 -100.46254 16518 ft 438 kts 296°
2026-04-15 15:45 32.71301 -100.49337 16509 ft 441 kts 296°
2026-04-15 15:45 32.72917 -100.52401 16499 ft 441 kts 296°
2026-04-15 15:46 32.74540 -100.55479 16488 ft 438 kts 296°
2026-04-15 15:46 32.76162 -100.58556 16476 ft 436 kts 296°
2026-04-15 15:46 32.77783 -100.61632 16478 ft 438 kts 296°
2026-04-15 15:46 32.79402 -100.64704 16488 ft 441 kts 296°
2026-04-15 15:47 32.81027 -100.67787 16490 ft 441 kts 296°
2026-04-15 15:47 32.82624 -100.70818 16501 ft 438 kts 296°
2026-04-15 15:47 32.84246 -100.73895 16503 ft 436 kts 296°
2026-04-15 15:47 32.85871 -100.76982 16507 ft 437 kts 296°
2026-04-15 15:48 32.87492 -100.80057 16510 ft 440 kts 296°
2026-04-15 15:48 32.89119 -100.83142 16508 ft 442 kts 296°
2026-04-15 15:48 32.90604 -100.86288 16468 ft 431 kts 283°
2026-04-15 15:48 32.90848 -100.89674 16488 ft 410 kts 259°
2026-04-15 15:49 32.90360 -100.93072 16506 ft 408 kts 256°
2026-04-15 15:49 32.89695 -100.96327 16484 ft 407 kts 246°
2026-04-15 15:49 32.87941 -100.98885 16512 ft 410 kts 213°
2026-04-15 15:49 32.85194 -100.99719 16554 ft 427 kts 181°
2026-04-15 15:50 32.82358 -100.98496 16582 ft 451 kts 149°
2026-04-15 15:50 32.80345 -100.95509 16597 ft 478 kts 118°
2026-04-15 15:50 32.79770 -100.91516 16600 ft 502 kts 88°
2026-04-15 15:50 32.80812 -100.87585 16600 ft 516 kts 59°
2026-04-15 15:51 32.83249 -100.84537 16591 ft 515 kts 32°
2026-04-15 15:51 32.86285 -100.82330 16544 ft 510 kts 26°
2026-04-15 15:51 32.89399 -100.80268 16501 ft 506 kts 25°
2026-04-15 15:51 32.92525 -100.78253 16465 ft 508 kts 25°
2026-04-15 15:52 32.95791 -100.76730 16457 ft 501 kts
2026-04-15 15:52 32.99102 -100.77019 16486 ft 479 kts 333°
2026-04-15 15:52 33.01749 -100.79099 16513 ft 448 kts 302°
2026-04-15 15:52 33.03298 -100.82216 16527 ft 432 kts 288°
2026-04-15 15:53 33.04528 -100.85505 16486 ft 429 kts 286°
2026-04-15 15:53 33.05687 -100.88817 16455 ft 431 kts 285°
2026-04-15 15:53 33.06807 -100.92130 16442 ft 434 kts 285°
2026-04-15 15:53 33.07909 -100.95448 16431 ft 433 kts 284°
2026-04-15 15:54 33.09002 -100.98774 16423 ft 430 kts 284°
2026-04-15 15:54 33.09960 -101.02148 16428 ft 420 kts 273°
2026-04-15 15:54 33.09593 -101.05469 16514 ft 405 kts 241°
2026-04-15 15:54 33.07654 -101.07857 16574 ft 411 kts 208°
2026-04-15 15:55 33.04832 -101.08434 16606 ft 432 kts 176°
2026-04-15 15:55 33.02063 -101.06964 16620 ft 458 kts 144°
2026-04-15 15:55 33.00207 -101.03796 16636 ft 483 kts 114°
2026-04-15 15:55 32.99847 -100.99736 16652 ft 502 kts 84°
2026-04-15 15:56 33.01128 -100.95827 16650 ft 514 kts 54°
2026-04-15 15:56 33.03752 -100.93000 16645 ft 513 kts 25°
2026-04-15 15:56 33.06938 -100.91157 16542 ft 511 kts 22°
2026-04-15 15:56 33.09723 -100.88555 16357 ft 510 kts 52°
2026-04-15 15:57 33.11226 -100.84751 16308 ft 504 kts 81°
2026-04-15 15:57 33.11151 -100.80720 16309 ft 490 kts 110°
2026-04-15 15:57 33.09636 -100.77231 16337 ft 470 kts 133°
2026-04-15 15:57 33.07563 -100.74252 16396 ft 465 kts 137°
2026-04-15 15:58 33.05421 -100.71360 16414 ft 462 kts 137°
2026-04-15 15:58 33.03254 -100.68497 16428 ft 462 kts 138°
2026-04-15 15:58 33.01082 -100.65650 16438 ft 466 kts 138°
2026-04-15 15:58 32.98903 -100.62802 16445 ft 468 kts 138°
2026-04-15 15:59 32.96565 -100.60237 16389 ft 451 kts 156°
2026-04-15 15:59 32.93727 -100.59281 16390 ft 421 kts 187°
2026-04-15 15:59 32.91035 -100.60316 16411 ft 403 kts 218°
2026-04-15 15:59 32.89383 -100.62967 16441 ft 404 kts 250°
2026-04-15 16:00 32.89184 -100.66348 16484 ft 419 kts 270°
2026-04-15 16:00 32.89528 -100.69784 16491 ft 423 kts 273°
2026-04-15 16:00 32.89971 -100.73218 16492 ft 421 kts 274°
2026-04-15 16:00 32.90460 -100.76661 16494 ft 419 kts 274°
2026-04-15 16:01 32.90972 -100.80099 16485 ft 418 kts 275°
2026-04-15 16:01 32.91497 -100.83537 16485 ft 420 kts 275°
2026-04-15 16:01 32.92026 -100.86966 16494 ft 424 kts 275°
2026-04-15 16:01 32.92557 -100.90398 16500 ft 425 kts 275°
2026-04-15 16:02 32.93089 -100.93840 16507 ft 424 kts 275°
2026-04-15 16:02 32.93615 -100.97246 16505 ft 430 kts 275°
2026-04-15 16:02 32.94168 -101.00948 16506 ft 475 kts 275°
2026-04-15 16:02 32.94746 -101.05022 16495 ft 518 kts 275°
2026-04-15 16:03 32.95340 -101.09237 16471 ft 511 kts 275°
2026-04-15 16:03 32.95938 -101.13437 16460 ft 513 kts 275°
2026-04-15 16:03 32.96541 -101.17652 16453 ft 515 kts 275°
2026-04-15 16:03 32.97073 -101.21892 16388 ft 516 kts 270°
2026-04-15 16:04 32.96623 -101.26022 16425 ft 509 kts 252°
2026-04-15 16:04 32.95544 -101.30017 16437 ft 509 kts 249°
2026-04-15 16:04 32.94398 -101.33987 16426 ft 508 kts 249°
2026-04-15 16:04 32.93238 -101.37973 16429 ft 506 kts 249°
2026-04-15 16:05 32.92060 -101.41939 16433 ft 505 kts 248°
2026-04-15 16:05 32.90866 -101.45898 16441 ft 507 kts 248°
2026-04-15 16:05 32.89674 -101.49852 16444 ft 509 kts 248°
2026-04-15 16:05 32.88482 -101.53798 16452 ft 510 kts 248°
2026-04-15 16:06 32.87302 -101.57714 16476 ft 508 kts 248°
2026-04-15 16:06 32.86107 -101.61675 16497 ft 507 kts 248°
2026-04-15 16:06 32.84911 -101.65648 16514 ft 508 kts 248°
2026-04-15 16:06 32.83717 -101.69614 16542 ft 510 kts 248°
2026-04-15 16:07 32.82526 -101.73576 16568 ft 511 kts 248°
2026-04-15 16:07 32.81333 -101.77547 16585 ft 509 kts 248°
2026-04-15 16:07 32.78464 -101.85192 16607 ft 505 kts 227°
2026-04-15 16:08 32.75535 -101.87492 16651 ft 513 kts 200°
2026-04-15 16:08 32.72005 -101.87791 16680 ft 529 kts 175°
2026-04-15 16:08 32.68387 -101.86813 16659 ft 531 kts 169°
2026-04-15 16:08 32.64829 -101.85601 16617 ft 533 kts 163°
2026-04-15 16:09 32.61648 -101.83210 16622 ft 553 kts 138°
2026-04-15 16:09 32.59834 -101.79160 16433 ft 582 kts 102°
2026-04-15 16:09 32.60134 -101.74346 16510 ft 600 kts 75°
2026-04-15 16:09 32.62064 -101.70003 16530 ft 605 kts 50°
2026-04-15 16:10 32.65282 -101.66845 16543 ft 600 kts 26°
2026-04-15 16:10 32.69221 -101.65410 16560 ft 588 kts
2026-04-15 16:10 32.73242 -101.65906 16577 ft 572 kts 336°
2026-04-15 16:10 32.76697 -101.68072 16591 ft 557 kts 316°
2026-04-15 16:11 32.79458 -101.71272 16601 ft 551 kts 307°
2026-04-15 16:11 32.81999 -101.74584 16588 ft 550 kts 307°
2026-04-15 16:11 32.84547 -101.77964 16575 ft 546 kts 306°
2026-04-15 16:11 32.87127 -101.81313 16544 ft 550 kts 312°
2026-04-15 16:12 32.90450 -101.83696 16526 ft 571 kts 335°
2026-04-15 16:12 32.94270 -101.85080 16537 ft 576 kts 340°
2026-04-15 16:12 32.98156 -101.86245 16511 ft 580 kts 347°
2026-04-15 16:12 33.02224 -101.86213 16493 ft 589 kts
2026-04-15 16:13 33.06299 -101.85542 16485 ft 590 kts
2026-04-15 16:13 33.10344 -101.84826 16466 ft 592 kts
2026-04-15 16:13 33.14408 -101.83956 16442 ft 598 kts 13°
2026-04-15 16:13 33.18085 -101.81670 16446 ft 604 kts 40°
2026-04-15 16:14 33.20665 -101.77751 16472 ft 601 kts 66°
2026-04-15 16:14 33.21750 -101.72974 16486 ft 592 kts 87°
2026-04-15 16:14 33.22049 -101.68049 16470 ft 593 kts 90°
2026-04-15 16:14 33.22244 -101.63140 16457 ft 592 kts 93°
2026-04-15 16:15 33.21595 -101.58441 16463 ft 577 kts 115°
2026-04-15 16:15 33.20016 -101.54050 16456 ft 571 kts 120°
2026-04-15 16:15 33.18337 -101.49746 16443 ft 570 kts 120°
2026-04-15 16:15 33.16650 -101.45445 16438 ft 571 kts 121°
2026-04-15 16:16 33.14497 -101.41535 16452 ft 561 kts 135°
2026-04-15 16:16 33.12258 -101.37730 16397 ft 572 kts 120°
2026-04-15 16:16 33.11383 -101.33109 16393 ft 588 kts 92°
2026-04-15 16:16 33.12270 -101.28306 16416 ft 601 kts 67°
2026-04-15 16:17 33.14683 -101.24231 16430 ft 606 kts 43°
2026-04-15 16:17 33.18193 -101.21520 16448 ft 594 kts 18°
2026-04-15 16:17 33.21659 -101.20777 16461 ft 443 kts 349°
2026-04-15 16:17 33.24251 -101.21969 16232 ft 383 kts 304°
2026-04-15 16:18 33.25167 -101.24662 16396 ft 359 kts 265°
2026-04-15 16:18 33.24509 -101.27710 16451 ft 405 kts 245°
2026-04-15 16:18 33.23275 -101.30956 16463 ft 452 kts 242°
2026-04-15 16:18 33.21809 -101.34504 16462 ft 501 kts 241°
2026-04-15 16:19 33.20624 -101.36919 16451 ft 511 kts 232°
2026-04-15 16:19 33.16830 -101.40030 16496 ft 514 kts 197°
2026-04-15 16:19 33.13244 -101.40092 16527 ft 532 kts 171°
2026-04-15 16:19 33.10872 -101.39111 16529 ft 535 kts 161°
2026-04-15 16:20 33.07492 -101.37264 16478 ft 537 kts 159°
2026-04-15 16:20 33.04094 -101.35332 16463 ft 539 kts 158°
2026-04-15 16:20 33.00717 -101.33360 16453 ft 542 kts 158°
2026-04-15 16:20 32.97363 -101.31353 16440 ft 542 kts 158°
2026-04-15 16:21 32.94051 -101.29354 16438 ft 540 kts 157°
2026-04-15 16:21 32.90697 -101.27325 16442 ft 538 kts 158°
2026-04-15 16:21 32.87208 -101.25825 16414 ft 525 kts 176°
2026-04-15 16:21 32.83639 -101.26250 16443 ft 514 kts 200°
2026-04-15 16:22 32.80296 -101.27753 16471 ft 514 kts 204°
2026-04-15 16:22 32.76999 -101.29354 16479 ft 512 kts 204°
2026-04-15 16:22 32.73948 -101.31394 16453 ft 506 kts 223°
2026-04-15 16:22 32.72016 -101.34866 16466 ft 511 kts 251°
2026-04-15 16:23 32.71790 -101.39106 16488 ft 526 kts 275°
2026-04-15 16:23 32.72814 -101.43226 16477 ft 538 kts 293°
2026-04-15 16:23 32.75229 -101.46680 16498 ft 557 kts 318°
2026-04-15 16:23 32.78798 -101.48665 16512 ft 575 kts 344°
2026-04-15 16:24 32.82850 -101.48750 16516 ft 592 kts
2026-04-15 16:24 32.86676 -101.46914 16513 ft 603 kts 33°
2026-04-15 16:24 32.89649 -101.43447 16513 ft 604 kts 57°
2026-04-15 16:24 32.91281 -101.38911 16511 ft 595 kts 82°
2026-04-15 16:25 32.91601 -101.34083 16489 ft 588 kts 93°
2026-04-15 16:25 32.91616 -101.29201 16447 ft 589 kts 94°
2026-04-15 16:25 32.91604 -101.24320 16435 ft 590 kts 94°
2026-04-15 16:25 32.91556 -101.19462 16440 ft 589 kts 95°
2026-04-15 16:26 32.91483 -101.14581 16448 ft 587 kts 95°
2026-04-15 16:26 32.91405 -101.09693 16462 ft 588 kts 95°
2026-04-15 16:26 32.91323 -101.04864 16471 ft 590 kts 95°
2026-04-15 16:26 32.91236 -100.99985 16478 ft 590 kts 95°
2026-04-15 16:27 32.91148 -100.95107 16483 ft 588 kts 95°
2026-04-15 16:27 32.91060 -100.90228 16478 ft 587 kts 95°
2026-04-15 16:27 32.90975 -100.85396 16479 ft 589 kts 95°
2026-04-15 16:27 32.90886 -100.80470 16481 ft 611 kts 95°
2026-04-15 16:28 32.90778 -100.75301 16469 ft 634 kts 95°
2026-04-15 16:28 32.90661 -100.69974 16452 ft 646 kts 95°
2026-04-15 16:28 32.90541 -100.64645 16432 ft 641 kts 95°
2026-04-15 16:28 32.90419 -100.59307 16426 ft 644 kts 95°
2026-04-15 16:29 32.90298 -100.54066 16431 ft 639 kts 95°
2026-04-15 16:29 32.90181 -100.48780 16368 ft 637 kts 95°
2026-04-15 16:29 32.89871 -100.43531 16139 ft 631 kts 105°
2026-04-15 16:29 32.88472 -100.38631 15963 ft 622 kts 117°
2026-04-15 16:30 32.86705 -100.33917 15733 ft 622 kts 117°
2026-04-15 16:30 32.85247 -100.29128 15366 ft 624 kts 111°
2026-04-15 16:30 32.83820 -100.24387 14917 ft 597 kts 114°
2026-04-15 16:30 32.82470 -100.19788 14446 ft 580 kts 112°
2026-04-15 16:31 32.81150 -100.15312 13994 ft 566 kts 112°
2026-04-15 16:31 32.79881 -100.10933 13534 ft 555 kts 112°
2026-04-15 16:31 32.78626 -100.06624 13039 ft 546 kts 112°
2026-04-15 16:31 32.77394 -100.02390 12553 ft 538 kts 112°
2026-04-15 16:32 32.76177 -99.98215 12081 ft 532 kts 112°
2026-04-15 16:32 32.74952 -99.94085 11613 ft 524 kts 115°
2026-04-15 16:32 32.73178 -99.90943 11181 ft 412 kts 144°
2026-04-15 16:32 32.70912 -99.89821 10757 ft 313 kts 184°
2026-04-15 16:33 32.68935 -99.90089 10244 ft 275 kts 192°
2026-04-15 16:33 32.67011 -99.90386 9632 ft 279 kts 187°
2026-04-15 16:33 32.65068 -99.90423 8994 ft 277 kts 180°
2026-04-15 16:33 32.63171 -99.90102 8306 ft 280 kts 174°
2026-04-15 16:34 32.61273 -99.89733 7598 ft 267 kts 175°
2026-04-15 16:34 32.59524 -99.89379 6899 ft 245 kts 174°
2026-04-15 16:34 32.57870 -99.89032 6212 ft 241 kts 175°
2026-04-15 16:34 32.56216 -99.88678 5497 ft 237 kts 174°
2026-04-15 16:35 32.54619 -99.88325 4684 ft 227 kts 174°
2026-04-15 16:35 32.53122 -99.87993 3879 ft 217 kts 174°
2026-04-15 16:35 32.51700 -99.87666 3409 ft 195 kts 173°
2026-04-15 16:35 32.50396 -99.87336 2811 ft 190 kts 173°
2026-04-15 16:36 32.49133 -99.87084 2524 ft 174 kts 174°
2026-04-15 16:36 32.47986 -99.86824 2522 ft 163 kts 168°
2026-04-15 16:36 32.46896 -99.86534 2524 ft 166 kts 175°
2026-04-15 16:36 32.45749 -99.86306 2229 ft 170 kts 172°
2026-04-15 16:37 32.44592 -99.86040 2006 ft 165 kts 173°
2026-04-15 16:37 32.43495 -99.85791 1839 ft 153 kts 170°